Tracking 29089 objects as of 12-Jul-2024
HD Live streaming from Space Station
objects crossing your sky now

COSMOS 1275 DEB

Track COSMOS 1275 DEB now!
10-day predictions


NORAD ID: 14627
Int'l Code: 1981-053JT
Perigee: 861.6 km
Apogee: 916.1 km
Inclination: 82.8 °
Period: 102.6 minutes
Semi major axis: 7259 km
RCS: 0.0099 m2 (small)
Launch date: June 4, 1981
Source: Commonwealth of Independent States (former USSR) (CIS)
Launch site: PLESETSK MISSILE AND SPACE COMPLEX (PKMTR)

Note: This is SATELLITE DEBRIS
Your satellite tracking list
Your tracking list is empty




NASA's NSSDC Master Catalog

Two Line Element Set (TLE):
1 14627U 81053JQ  24193.61158191  .00001827  00000-0  11502-2 0  9997
2 14627  82.7806 248.9413 0037513 266.3407 223.0890 14.03494071 62275
Source of the keplerian elements: AFSPC